Regional Weather Roundup
Issued by NWS

Home | Current Version | Previous Version | Text Only | Print | Product List | Glossary Off
Versions: 1 2 3 4 5 6 7 8 9 10 11 12 13 14 15 16 17 18 19 20 21 22 23 24 25 26 27 28 29 30 31 32 33 34 35 36 37 38 39 40 41 42 43 44 45 46 47 48 49 50

000
ASUS43 KBIS 180210
RWRND

NORTH DAKOTA REGIONAL WEATHER ROUNDUP
NATIONAL WEATHER SERVICE BISMARCK ND
900 PM CDT WED SEP 17 2014

NOTE: "FAIR" INDICATES FEW OR NO CLOUDS BELOW 12,000 FEET WITH NO
SIGNIFICANT WEATHER AND/OR OBSTRUCTIONS TO VISIBILITY.


NDZ001>003-009>011-017-180300-
NORTHWEST NORTH DAKOTA

CITY           SKY/WX    TMP DP  RH WIND       PRES   REMARKS
WILLISTON      CLEAR     62  43  49 E7        29.92R
MINOT          CLEAR     53  47  79 E8        29.98S
MINOT AFB      CLEAR     55  49  82 E10       29.98R
$$

NDZ018>021-031>035-040>046-180300-
SOUTHWEST NORTH DAKOTA

CITY           SKY/WX    TMP DP  RH WIND       PRES   REMARKS
BISMARCK       CLEAR     56  48  74 E6        29.97R
DICKINSON      CLEAR     58  49  72 SE12      29.94S
GARRISON         N/A     59  51  75 E12       29.97R
HETTINGER ARPT CLEAR     59  51  75 E10       29.97R
$$

NDZ004>008-012>016-024-026-027-054-180300-
NORTHEAST NORTH DAKOTA

CITY           SKY/WX    TMP DP  RH WIND       PRES   REMARKS
GRAND FORKS    CLEAR     53  45  74 NE9       30.04R
GRND FRKS AFB  CLEAR     52  46  78 E9        30.05R
DEVILS LAKE    CLEAR     48  39  71 E7        30.03R
$$

NDZ022-023-025-028>030-036>039-047>053-180300-
SOUTHEAST NORTH DAKOTA

CITY           SKY/WX    TMP DP  RH WIND       PRES   REMARKS
FARGO          CLEAR     59  50  72 N8        30.00R
JAMESTOWN      CLEAR     54  50  86 E6        30.01R
$$



USA.gov is the U.S. government's official web portal to all federal, state and local government web resources and services.